User: anonymous   Login
Location: Ida Center
(41.8662°N, 83.5713°W)
Time: 22:15:52
(UTC+00:00)
Language:

Cosmos 2297 Rocket - Orbit

View from above orbital plane
View from above orbital plane
View from above satellite
View from above satellite

Ground track
Ground track

The orbit data is extracted from the following two-line orbital elements,

1 23405U 94077B   20028.33480239 +.00000145 +00000-0 +99339-4 0  9992
2 23405 070.9822 007.1768 0004561 291.1810 068.8825 14.15214666300399
Epoch (UTC): 28 January 2020 08:02:06
Eccentricity: 0.0004561
inclination: 70.9822°
perigee height: 838 km
apogee height: 845 km
right ascension of ascending node: 7.1768°
argument of perigee: 291.1810°
revolutions per day: 14.15214666
mean anomaly at epoch: 68.8825°
orbit number at epoch: 30039

The dashed part of the orbit path shows where the satellite is in the earth's shadow,  

DLR